This is the latest recevied weather packets stored in our database for station/object KC3SOZ. If no packets are shown the sender has not sent any weather packets the latest 10 day(s).
| Time | Temp. | Humidity | Pressure | Rain* | Wind** | Luminosity | Snow |
|---|---|---|---|---|---|---|---|
| 1777935426 | 21.11° C | 46% | 1008.6 hPa | 0 mm | - | 54 W/m² | - |
| 1777935122 | 21.11° C | 45% | 1008.7 hPa | 0 mm | - | 60 W/m² | - |
| 1777934820 | 21.11° C | 46% | 1008.9 hPa | 0 mm | - | 58 W/m² | - |
| 1777934516 | 21.67° C | 45% | 1008.6 hPa | 0 mm | - | 81 W/m² | - |
| 1777934213 | 21.67° C | 45% | 1008.9 hPa | 0 mm | - | 94 W/m² | - |
| 1777933908 | 21.67° C | 45% | 1008.8 hPa | 0 mm | - | 108 W/m² | - |
| 1777933606 | 21.67° C | 45% | 1008.7 hPa | 0 mm | - | 155 W/m² | - |
| 1777933302 | 21.67° C | 46% | 1008.7 hPa | 0 mm | - | 158 W/m² | - |
| 1777933000 | 21.67° C | 44% | 1008.7 hPa | 0 mm | - | 180 W/m² | - |
| 1777932697 | 21.67° C | 46% | 1008.6 hPa | 0 mm | - | 201 W/m² | - |
| 1777932393 | 21.67° C | 44% | 1008.9 hPa | 0 mm | - | 158 W/m² | - |
| 1777932091 | 21.67° C | 43% | 1009 hPa | 0 mm | - | 198 W/m² | - |
| 1777931787 | 21.67° C | 44% | 1008.8 hPa | 0 mm | - | 220 W/m² | - |
| 1777931485 | 21.67° C | 44% | 1008.9 hPa | 0 mm | - | 261 W/m² | - |
| 1777931181 | 21.67° C | 43% | 1008.7 hPa | 0 mm | - | 288 W/m² | - |
| 1777930877 | 21.67° C | 43% | 1009 hPa | 0 mm | - | 305 W/m² | - |
| 1777930573 | 22.22° C | 43% | 1009 hPa | 0 mm | - | 314 W/m² | - |
| 1777930270 | 21.67° C | 44% | 1008.6 hPa | 0 mm | - | 326 W/m² | - |
| 1777929966 | 22.22° C | 44% | 1008.9 hPa | 0 mm | - | 351 W/m² | - |
| 1777929664 | 22.22° C | 44% | 1008.7 hPa | 0 mm | - | 373 W/m² | - |
| 1777929361 | 22.22° C | 40% | 1008.9 hPa | 0 mm | - | 384 W/m² | - |
| 1777929057 | 22.22° C | 42% | 1009 hPa | 0 mm | - | 393 W/m² | - |
| 1777928755 | 21.67° C | 43% | 1008.9 hPa | 0 mm | - | 396 W/m² | - |
| 1777928451 | 22.22° C | 44% | 1009 hPa | 0 mm | - | 423 W/m² | - |
| 1777928149 | 22.22° C | 43% | 1008.9 hPa | 0 mm | - | 441 W/m² | - |
* Rain latest hour (hover to see other rain measurements)
** Current wind speed in m/s (hover to see current wind gust speed)